Location: Camaret
(48.2753°N, 4.5961°W)
Time: 04:26:16
(UTC+00:00)

Lacrosse 5 - Pass Details

Date: 29 October 2020
Orbit: 714 x 725 km, 57.0° (Epoch: 30 November)

Event Time Altitude Azimuth Distance (km) Brightness Sun altitude
Rises 19:53:27 0° 304° (NW) 3,121 6.2 -28.7°
Reaches altitude 10° 19:55:54 10° 309° (NW) 2,199 5.1 -29.1°
Enters shadow 19:59:26 39° 339° (NNW) 1,068 2.9 -29.7°
